Weather History for Pierre, SD

Change the Weather History Date:

Friday, February 15, 2013

  Actual Average Record
Temperature  
Mean Temperature 22 °F 24 °F  
Max Temperature 27 °F 35 °F 61 °F (2011)
Min Temperature 16 °F 14 °F -24 °F (1936)
Degree Days  
Heating Degree Days 43 41  
Month to date heating degree days 549 637  
Since 1 July heating degree days 4881 4997  
Cooling Degree Days 0 0  
Month to date cooling degree days 0 0  
Year to date cooling degree days 0 0  
Moisture  
Dew Point 17 °F    
Average Humidity 76    
Maximum Humidity 88    
Minimum Humidity 63    
Precipitation  
Precipitation 0.00 in 0.02 in 0.35 in (1990)
Month to date precipitation 0.66 0.25  
Year to date precipitation 1.53 0.67  
Snow  
Snow 0.00 in 0.20 in 8.50 in (1990)
Month to date snowfall 6.6 2.7  
Since 1 July snowfall 27.9 18.6  
Snow Depth -    
Sea Level Pressure  
Sea Level Pressure 30.33 in    
Wind  
Wind Speed 10 mph (WNW)    
Max Wind Speed 24 mph    
Max Gust Speed 30 mph    
Visibility 9 miles    
Events Snow    
T = Trace of Precipitation, MM = Missing Value Source: NWS Daily Summary

Daily Weather History Graph

Daily Weather History Graph

Search for Another Location

Airport:

Trip Planner

Search our weather history database for the weather conditions in past years. The results will help you decide how hot, cold, wet, or windy it might be!

Date:

Astronomy

Feb. 15, 2013 Rise Set
Actual Time 7:40 AM CST 6:10 PM CST
Civil Twilight 7:10 AM CST 6:40 PM CST
Nautical Twilight 6:36 AM CST 7:14 PM CST
Astronomical Twilight 6:03 AM CST 7:48 PM CST
Moon 10:02 AM CST (2/15) No Moon Set
Length of Visible Light 11h 29m
Length of Day
10h 30m
Waxing Crescent, 30% of the Moon is Illuminated
Feb 15
Waxing Crescent
Feb 17
First Quarter
Feb 25
Full
Mar 4
Last Quarter
Mar 11
New

Hourly Weather History & Observations

Time (CST) Temp. Windchill Dew Point Humidity Pressure Visibility Wind Dir Wind Speed Gust Speed Precip Events Conditions
12:53 AM 24.1 °F 18.2 °F 18.0 °F 77% 30.36 in 10.0 mi WSW 4.6 mph - N/A   Overcast
1:53 AM 24.1 °F 17.0 °F 18.0 °F 77% 30.35 in 10.0 mi WSW 5.8 mph - N/A   Overcast
2:53 AM 25.0 °F 17.1 °F 18.0 °F 75% 30.34 in 10.0 mi West 6.9 mph - N/A   Overcast
3:23 AM 24.8 °F 15.3 °F 19.4 °F 80% 30.26 in 1.8 mi WSW 9.2 mph - 0.00 in Snow Light Snow
3:30 AM 24.8 °F 16.9 °F 19.4 °F 80% 30.26 in 0.8 mi SW 6.9 mph - 0.00 in Snow Light Snow
3:35 AM 23.0 °F 14.7 °F 21.2 °F 93% 30.25 in 1.0 mi SW 6.9 mph - 0.00 in Snow Light Snow
3:41 AM 23.0 °F 15.8 °F 21.2 °F 93% 30.25 in 2.5 mi SW 5.8 mph - 0.00 in Snow Light Snow
3:47 AM 23.0 °F 14.7 °F 21.2 °F 93% 30.24 in 9.0 mi SW 6.9 mph - 0.00 in   Overcast
3:48 AM 23.0 °F 14.7 °F 21.2 °F 93% 30.24 in 9.0 mi SW 6.9 mph - 0.00 in   Overcast
3:53 AM 23.0 °F 14.7 °F 19.9 °F 88% 30.32 in 10.0 mi SW 6.9 mph - 0.00 in   Overcast
4:23 AM 23.0 °F 13.9 °F 19.4 °F 86% 30.24 in 10.0 mi SW 8.1 mph - N/A   Mostly Cloudy
4:35 AM 21.2 °F 10.9 °F 17.6 °F 86% 30.24 in 10.0 mi WSW 9.2 mph - N/A   Mostly Cloudy
4:43 AM 23.0 °F 13.9 °F 17.6 °F 80% 30.24 in 10.0 mi WSW 8.1 mph - N/A   Mostly Cloudy
4:53 AM 21.9 °F 13.4 °F 18.0 °F 85% 30.31 in 10.0 mi WSW 6.9 mph - N/A   Scattered Clouds
5:53 AM 23.0 °F 10.6 °F 18.0 °F 81% 30.32 in 10.0 mi WNW 13.8 mph - N/A   Overcast
6:53 AM 23.0 °F 9.6 °F 18.0 °F 81% 30.32 in 8.0 mi NW 16.1 mph - 0.00 in Snow Light Snow
7:23 AM 23.0 °F 8.7 °F 17.6 °F 80% 30.26 in 10.0 mi NW 18.4 mph - 0.00 in   Overcast
7:53 AM 23.0 °F 9.2 °F 18.0 °F 81% 30.34 in 10.0 mi NNW 17.3 mph - 0.00 in   Overcast
8:27 AM 21.2 °F 7.8 °F 17.6 °F 86% 30.28 in 7.0 mi North 15.0 mph - 0.00 in Snow Light Snow
8:53 AM 23.0 °F 10.6 °F 16.0 °F 74% 30.38 in 10.0 mi NNW 13.8 mph 21.9 mph 0.00 in   Overcast
9:36 AM 23.0 °F 11.1 °F 17.6 °F 80% 30.30 in 10.0 mi NNW 12.7 mph - N/A   Mostly Cloudy
9:46 AM 24.8 °F 12.4 °F 17.6 °F 74% 30.31 in 10.0 mi NNW 15.0 mph - N/A   Overcast
9:53 AM 24.1 °F 11.0 °F 18.0 °F 77% 30.39 in 10.0 mi NNW 16.1 mph - N/A   Overcast
10:40 AM 24.8 °F 11.5 °F 17.6 °F 74% 30.32 in 10.0 mi NW 17.3 mph 21.9 mph 0.00 in   Overcast
10:49 AM 24.8 °F 11.1 °F 15.8 °F 69% 30.32 in 10.0 mi NNW 18.4 mph - 0.00 in   Overcast
10:53 AM 25.0 °F 10.6 °F 16.0 °F 69% 30.40 in 10.0 mi NW 20.7 mph - 0.00 in   Overcast
11:31 AM 24.8 °F 11.5 °F 17.6 °F 74% 30.33 in 10.0 mi NW 17.3 mph - N/A   Overcast
11:53 AM 26.1 °F 12.0 °F 16.0 °F 66% 30.40 in 10.0 mi NNW 20.7 mph 26.5 mph N/A   Overcast
12:38 PM 24.8 °F 12.9 °F 15.8 °F 69% 30.34 in 3.0 mi North 13.8 mph 26.5 mph 0.00 in Snow Light Snow
12:53 PM 25.0 °F 12.2 °F 16.0 °F 69% 30.41 in 8.0 mi North 16.1 mph - 0.00 in Snow Light Snow
1:12 PM 24.8 °F 12.4 °F 15.8 °F 69% 30.34 in 9.0 mi North 15.0 mph - 0.00 in   Overcast
1:53 PM 25.0 °F 13.6 °F 16.0 °F 69% 30.41 in 10.0 mi NNE 12.7 mph - 0.00 in   Overcast
2:43 PM 26.6 °F 15.2 °F 15.8 °F 64% 30.34 in 10.0 mi North 13.8 mph - N/A   Overcast
2:53 PM 25.0 °F 15.5 °F 16.0 °F 69% 30.41 in 10.0 mi North 9.2 mph - N/A   Overcast
3:04 PM 26.6 °F 17.5 °F 17.6 °F 69% 30.34 in 10.0 mi North 9.2 mph - N/A   Overcast
3:29 PM 26.6 °F 18.2 °F 17.6 °F 69% 30.33 in 10.0 mi North 8.1 mph - N/A   Scattered Clouds
3:53 PM 26.1 °F 16.8 °F 15.1 °F 63% 30.41 in 10.0 mi NNE 9.2 mph - N/A   Partly Cloudy
4:53 PM 26.1 °F 20.5 °F 15.1 °F 63% 30.40 in 10.0 mi NNE 4.6 mph - N/A   Clear
5:53 PM 23.0 °F - 16.0 °F 74% 30.40 in 10.0 mi Calm Calm - N/A   Clear
6:53 PM 19.0 °F 12.3 °F 14.0 °F 81% 30.38 in 10.0 mi SE 4.6 mph - N/A   Clear
7:53 PM 17.1 °F 10.0 °F 12.9 °F 84% 30.37 in 10.0 mi SE 4.6 mph - N/A   Clear
8:53 PM 17.1 °F 8.7 °F 12.9 °F 84% 30.35 in 10.0 mi SSE 5.8 mph - N/A   Clear
9:53 PM 18.0 °F 9.8 °F 12.9 °F 81% 30.32 in 10.0 mi South 5.8 mph - N/A   Clear
10:53 PM 19.0 °F 11.1 °F 12.9 °F 77% 30.29 in 10.0 mi South 5.8 mph - N/A   Clear
11:53 PM 19.9 °F 10.1 °F 15.1 °F 81% 30.26 in 10.0 mi South 8.1 mph - N/A   Scattered Clouds